Home   Weather   Los Angeles   Past weeks

Flag for USA Past Weather in Los Angeles, California, USA — Yesterday and Last 2 Weeks

Now
80 °F

Sunny.


Feels Like: 82 °F
Forecast: 66 / 87 °F
Wind: 6 mph from North

Location: Los Angeles / USC Campus Downtown

Current Time: Aug 30, 2016 at 5:31:50 PM

Latest Report: Aug 30, 2016 at 4:47 PM


Visibility: 10 mi

Pressure: 29.77 "Hg

Humidity: 58%

Dew Point: 64 °F

Location of Los AngelesLocation

Past Weather in Los Angeles — Graph

°F

Los Angeles Temperature Yesterday

Maximum temperature yesterday: 84 °F (at 11:47 AM)
Minimum temperature yesterday: 65 °F (at 4:47 AM)
Average temperature yesterday: 74 °F

High & Low Weather Summary for the Past Weeks

 TemperatureHumidityPressure
High86 °F (Aug 16, 1:47 PM)97% (Aug 17, 3:47 AM)30.03 "Hg (Aug 17, 3:47 AM)
Low60 °F (Aug 17, 5:47 AM)35% (Aug 15, 4:47 PM)29.77 "Hg (Aug 30, 3:47 PM)
Average71 °F70%29.90 "Hg
* Reported Aug 15 3:47 PM — Aug 30 3:47 PM, Los Angeles, Weather by CustomWeather, © 2016

Note: Actual official high and low records may vary slightly from our data, if they occured in-between our weather recording intervals... More about our weather records

Advertising

Los Angeles Weather History for the Previous 24 Hours

Scroll right to see more
 ConditionsComfort  
Time TempWeatherWind HumidityBarometerVisibility
3:47 PM
Tue, Aug 30
82 °FSunny.6 mph51%29.77 "Hg10 mi
2:47 PM84 °FSunny.7 mph49%29.78 "Hg10 mi
1:47 PM85 °FSunny.6 mph45%29.80 "Hg10 mi
12:47 PM86 °FSunny.6 mph48%29.81 "Hg9 mi
11:47 AM86 °FSunny.5 mph48%29.83 "Hg10 mi
10:47 AM81 °FSunny.No wind56%29.85 "Hg8 mi
9:47 AM75 °FSunny.No wind71%29.86 "Hg5 mi
9:01 AM71 °FOvercast.3 mph81%29.88 "Hg4 mi
8:47 AM70 °FLow clouds.No wind81%29.87 "Hg4 mi
7:47 AM68 °FFog.No wind87%29.87 "Hg4 mi
6:47 AM67 °FFog.5 mph90%29.86 "Hg4 mi
5:47 AM67 °FFog.No wind90%29.86 "Hg5 mi
4:47 AM68 °FClear.No wind87%29.85 "Hg8 mi
3:47 AM69 °FClear.No wind76%29.85 "Hg10 mi
2:47 AM68 °FClear.No wind76%29.85 "Hg10 mi
1:47 AM69 °FClear.No wind73%29.85 "Hg10 mi
12:47 AM69 °FClear.No wind73%29.86 "Hg10 mi
11:47 PM
Mon, Aug 29
70 °FClear.No wind73%29.86 "Hg10 mi
10:47 PM71 °FClear.No wind68%29.87 "Hg10 mi
9:47 PM71 °FClear.No wind68%29.86 "Hg10 mi
8:47 PM70 °FClear.No wind71%29.85 "Hg10 mi
7:47 PM71 °FSunny.No wind66%29.83 "Hg10 mi
6:47 PM74 °FSunny.3 mph57%29.82 "Hg10 mi
5:47 PM79 °FSunny.6 mph50%29.82 "Hg10 mi
Weather by CustomWeather, © 2016

See weather overviewHow to use our weather pages